[[{"header":{"parameterUnit":"m.s-1","parameterCategory":1,"la1":30.2991,"la2":30.254,"lo1":-89.0895,"lo2":-89.0444,"dy":0.0017,"dx":0.0017,"nx":28,"ny":28,"refTime":"2025-02-11T03:00:00:Z","depth":0,"parameterNumber":2,"parameterNumberName":"U-component_of_WINDS"},"data":[0,0,0,0,0,0,0,0,0,0,0,0,0,0,0,0,0,0,0,0,0,0,0,0,0,0,0,0,0,0,0,0,0,0,0,0,0,0,0,0,0,0,0,0,0,0,0,0,0,0,0,0,0,0,0,0,0,0,0.1125,0.1124,0,0.1041,0.104,0.1039,0.0997,0.0997,0.0997,0.0997,0.0912,0.091,0.0908,0,0,0,0,0,0,0,0,0,0,0,0,0,0.125,0.1248,0.1125,0.1124,0.1123,0.1041,0.104,0.1039,0.0997,0.0997,0.0997,0.0997,0.0913,0.091,0.0908,0,0,0,0,0,0,0,0,0,0,0,0,0,0.1184,0.1247,0.1125,0.1092,0.1088,0.1041,0.104,0.1039,0.0997,0.0997,0.0997,0.0997,0.0914,0.091,0.0907,0.0887,0,0,0.0897,0.0895,0,0,0,0,0,0,0,0,0.1188,0.1179,0.1098,0.1094,0.109,0.103,0.1053,0.0988,0.0997,0.1032,0.0997,0.0997,0.0951,0.0945,0.0929,0.0883,0.0879,0.0897,0.0895,0.0893,0.0892,0,0,0,0,0,0,0,0.1192,0.1183,0.1092,0.1097,0.1092,0.1082,0.1073,0.104,0.0993,0.1029,0.1026,0.1016,0.0949,0.0933,0.0927,0.0878,0.0897,0.0894,0.0892,0.089,0.0812,0.0811,0,0,0,0,0,0,0.1202,0.1187,0.1094,0.1089,0.114,0.108,0.1069,0.1049,0.0993,0.0984,0.1016,0.1014,0.0938,0.0931,0.0924,0.0896,0.0893,0.089,0.0888,0.0812,0.0811,0.0811,0,0,0,0,0,0,0.1205,0.1194,0.1098,0.1137,0.1124,0.1078,0.1055,0.1047,0.1031,0.0983,0.0975,0.1008,0.0938,0.0928,0.0896,0.0893,0.0888,0.0885,0.0812,0.0812,0.0811,0.0842,0,0,0,0,0,0,0.1209,0.1196,0.1187,0.1137,0.1122,0.1072,0.1055,0.1046,0.1025,0.1022,0.0973,0.0965,0.0937,0.0902,0.0893,0.0888,0.0883,0.0812,0.0812,0.0811,0.0841,0.0843,0.0844,0,0,0,0,0,0.1213,0.1199,0.1187,0.1176,0.1111,0.1072,0.1063,0.103,0.1025,0.1016,0.0986,0.0967,0.0895,0.0899,0.0889,0.0883,0.0812,0.0812,0.0811,0.084,0.0842,0.0844,0,0,0,0,0,0,0.125,0.1192,0.1178,0.1147,0.1114,0.1065,0.1052,0.1034,0.1002,0.1001,0.0962,0.0952,0.0923,0.09,0.0905,0.086,0.0851,0.0849,0.0877,0.0878,0.088,0.0886,0.088,0,0,0,0,0,0.1254,0.1227,0.1178,0.1156,0.114,0.1099,0.1081,0.1059,0.1024,0.101,0.0977,0.0944,0.0914,0.0895,0.0865,0.0837,0.0826,0.0828,0.083,0.0832,0.083,0.0814,0.0815,0.0811,0.0811,0.0811,0,0,0.1263,0.1228,0.1213,0.1162,0.1134,0.1107,0.1088,0.106,0.104,0.1006,0.0973,0.0949,0.0909,0.088,0.0865,0.0859,0.0829,0.0832,0.0833,0.0831,0.0814,0.0815,0.0815,0.0811,0.0811,0.0811,0,0,0.1266,0.1236,0.1214,0.1187,0.1145,0.1118,0.1113,0.1066,0.1048,0.1015,0.0989,0.0965,0.0913,0.0886,0.0866,0.0859,0.0841,0.085,0.0859,0.0844,0.0844,0.0844,0.0842,0.0841,0.0849,0.0849,0.0849,0,0.1282,0.124,0.1206,0.1179,0.1158,0.1126,0.1103,0.1079,0.1029,0.1015,0.1009,0.0945,0.0916,0.088,0.0878,0.0863,0.0856,0.0855,0.0847,0.0847,0.0846,0.0843,0.0843,0.0851,0.085,0.085,0.085,0,0.1262,0.1233,0.1221,0.1174,0.1151,0.1127,0.1089,0.107,0.105,0.1024,0.0991,0.0956,0.0918,0.0907,0.0888,0.0868,0.0866,0.0854,0.0844,0.0849,0.0845,0.0844,0.0853,0.0852,0.0852,0.0851,0,0,0.1284,0.1219,0.1215,0.1193,0.1145,0.1122,0.1097,0.106,0.1044,0.1012,0.099,0.0948,0.0936,0.0913,0.089,0.0877,0.0874,0.0867,0.0865,0.0869,0.0851,0.086,0.0859,0.0862,0.0861,0.0861,0.0854,0,0.1279,0.1232,0.1201,0.1166,0.114,0.1109,0.1087,0.1056,0.1031,0.1005,0.0977,0.0948,0.0936,0.0921,0.0907,0.0878,0.087,0.0878,0.0841,0.084,0.0851,0.0857,0.0866,0.0861,0.0852,0.0852,0.0852,0,0.1267,0.1235,0.1198,0.1153,0.1141,0.1122,0.1085,0.1061,0.1025,0.1007,0.0982,0.0959,0.0931,0.0925,0.0886,0.0892,0.0876,0.0859,0.0858,0.0853,0.0846,0.0852,0.0858,0.0858,0.0849,0.085,0.085,0,0.1287,0.1235,0.1206,0.1188,0.1135,0.1123,0.11,0.1064,0.1044,0.1012,0.0998,0.0964,0.0945,0.0919,0.0888,0.0886,0.0853,0.0843,0.0838,0.0839,0.0832,0.0833,0.0836,0.0822,0.0822,0.0822,0.0822,0,0.1285,0.1263,0.1214,0.1196,0.1171,0.1136,0.1112,0.1087,0.1055,0.1032,0.1004,0.0983,0.0943,0.0917,0.0892,0.0864,0.0856,0.0842,0.0835,0.0844,0.0846,0.0832,0.0832,0.0822,0.0822,0.0822,0.0822,0,0.1302,0.1269,0.1235,0.1188,0.1175,0.1159,0.1119,0.11,0.1074,0.1046,0.1037,0.0996,0.0964,0.093,0.0887,0.087,0.0844,0.0835,0.0856,0.0852,0.0849,0.0849,0.0843,0.084,0.0829,0.0829,0.0829,0,0.1303,0.1286,0.1237,0.1219,0.1197,0.1169,0.1149,0.1114,0.1093,0.1051,0.1038,0.1004,0.0975,0.0926,0.0892,0.0859,0.0849,0.0849,0.0844,0.0853,0.0849,0.085,0.0848,0.0851,0.0851,0.0851,0.0851,0,0.1308,0.1292,0.1263,0.1228,0.1204,0.1175,0.1145,0.1132,0.1091,0.107,0.1037,0.1015,0.0971,0.0937,0.09,0.0877,0.0858,0.0853,0.085,0.0859,0.0872,0.0864,0.086,0.0854,0.0853,0.0853,0.0853,0.0853,0.1316,0.1299,0.1263,0.1231,0.1205,0.1178,0.1158,0.113,0.1102,0.1063,0.1044,0.1012,0.0976,0.0925,0.0902,0.0876,0.087,0.0866,0.0865,0.0864,0.0866,0.0876,0.087,0.0869,0.0869,0.0869,0.0869,0,0.1319,0.1294,0.1266,0.1224,0.12,0.1184,0.115,0.113,0.1102,0.1071,0.1043,0.1005,0.0973,0.0938,0.0903,0.0889,0.088,0.0882,0.0882,0.0877,0.0874,0.088,0.089,0.089,0.089,0.089,0.089,0.089,0.1318,0.1289,0.1269,0.1226,0.1201,0.1169,0.1151,0.1126,0.1101,0.106,0.1033,0.101,0.0977,0.094,0.091,0.0901,0.0889,0.0894,0.0882,0.0879,0.0877,0.0876,0.0881,0.0892,0.0892,0.0887,0.0887,0.0887]},{"header":{"parameterUnit":"m.s-1","parameterCategory":1,"la1":30.2991,"la2":30.254,"lo1":-89.0895,"lo2":-89.0444,"dy":0.0017,"dx":0.0017,"nx":28,"ny":28,"refTime":"2025-02-11T03:00:00:Z","depth":0,"parameterNumber":3,"parameterNumberName":"V-component_of_WINDS"},"data":[0,0,0,0,0,0,0,0,0,0,0,0,0,0,0,0,0,0,0,0,0,0,0,0,0,0,0,0,0,0,0,0,0,0,0,0,0,0,0,0,0,0,0,0,0,0,0,0,0,0,0,0,0,0,0,0,0,0,6.415,6.4151,0,6.4322,6.4324,6.4326,6.4358,6.4356,6.4355,6.4354,6.4532,6.4537,6.4543,0,0,0,0,0,0,0,0,0,0,0,0,0,6.3851,6.3856,6.4149,6.4152,6.4154,6.4322,6.4324,6.4326,6.4358,6.4356,6.4355,6.4353,6.453,6.4537,6.4544,0,0,0,0,0,0,0,0,0,0,0,0,0,6.3997,6.3858,6.4149,6.419,6.4195,6.4321,6.4324,6.4327,6.4358,6.4356,6.4354,6.4352,6.4527,6.4536,6.4545,6.4643,0,0,6.4573,6.4576,0,0,0,0,0,0,0,0,6.3989,6.4008,6.4182,6.4187,6.4193,6.4316,6.4284,6.4433,6.4359,6.4297,6.4354,6.4351,6.4462,6.4476,6.4513,6.4651,6.4659,6.4573,6.4579,6.4583,6.4585,0,0,0,0,0,0,0,6.3979,6.4001,6.4218,6.4184,6.4191,6.42,6.4219,6.4312,6.4389,6.4302,6.4305,6.4324,6.4464,6.4504,6.4517,6.4661,6.4573,6.4581,6.4587,6.459,6.4891,6.4894,0,0,0,0,0,0,6.3961,6.3992,6.4212,6.4223,6.4084,6.4207,6.4228,6.4279,6.4388,6.4402,6.4326,6.4325,6.449,6.4507,6.4524,6.4648,6.4583,6.4591,6.4596,6.4889,6.4892,6.4895,0,0,0,0,0,0,6.3955,6.398,6.4205,6.4109,6.4138,6.4215,6.4272,6.4283,6.4323,6.4406,6.442,6.4352,6.4489,6.4511,6.4613,6.4654,6.4595,6.4603,6.4886,6.489,6.4893,6.4895,0,0,0,0,0,0,6.3946,6.3978,6.4015,6.4109,6.4143,6.4291,6.4274,6.4288,6.4338,6.4339,6.4435,6.4448,6.4489,6.46,6.4622,6.4666,6.461,6.4882,6.4888,6.4892,6.4892,6.4898,6.4904,0,0,0,0,0,6.3935,6.4008,6.4017,6.4043,6.4191,6.4293,6.4313,6.4358,6.4341,6.438,6.4434,6.4445,6.4646,6.461,6.4636,6.4682,6.488,6.4886,6.4892,6.4889,6.4897,6.4904,0,0,0,0,0,0,6.3917,6.4021,6.4032,6.4137,6.4206,6.4299,6.4349,6.4364,6.444,6.4437,6.449,6.4511,6.4611,6.4657,6.4615,6.4784,6.4762,6.4773,6.4751,6.476,6.4766,6.4753,6.4618,0,0,0,0,0,6.3925,6.3999,6.4086,6.4171,6.4205,6.4271,6.4317,6.4346,6.442,6.4449,6.451,6.4582,6.4662,6.4713,6.479,6.4898,6.4921,6.4943,6.4949,6.4954,6.4963,6.5027,6.5038,6.4914,6.4914,6.4913,0,0,6.3943,6.4009,6.4053,6.4169,6.4226,6.4303,6.4295,6.4376,6.4434,6.4462,6.4563,6.461,6.4694,6.48,6.485,6.4841,6.5003,6.4961,6.4964,6.4972,6.5034,6.5046,6.5056,6.4918,6.4917,6.4916,0,0,6.4015,6.4072,6.415,6.4207,6.4294,6.4337,6.4356,6.4447,6.4479,6.4581,6.4604,6.4674,6.4809,6.4869,6.4917,6.5013,6.5028,6.5037,6.5071,6.5132,6.5141,6.515,6.5188,6.52,6.5046,6.5046,6.5046,0,6.4027,6.4143,6.4188,6.4269,6.4321,6.4349,6.443,6.4483,6.459,6.4626,6.4614,6.4786,6.4844,6.4966,6.499,6.5027,6.5052,6.5027,6.5136,6.5146,6.5155,6.5191,6.5204,6.5047,6.5047,6.5047,6.5047,0,6.4154,6.4234,6.4287,6.4391,6.4448,6.4528,6.4587,6.464,6.4664,6.4709,6.4814,6.4885,6.4979,6.5009,6.5033,6.5136,6.5128,6.5125,6.5105,6.5167,6.5202,6.5216,6.5048,6.5048,6.5047,6.5047,0,0,6.422,6.4348,6.4367,6.4416,6.4514,6.4577,6.4659,6.4751,6.4797,6.487,6.4942,6.5056,6.5055,6.511,6.514,6.5194,6.5269,6.5185,6.5188,6.5201,6.539,6.5392,6.5408,6.5278,6.5281,6.5283,6.5384,0,6.4306,6.4453,6.4497,6.4622,6.4698,6.4727,6.4799,6.4867,6.4912,6.4984,6.5033,6.5115,6.5106,6.514,6.5193,6.5248,6.5308,6.5242,6.5348,6.5351,6.5328,6.5425,6.5428,6.5519,6.5397,6.54,6.5401,0,6.4425,6.4502,6.4634,6.4725,6.4758,6.4822,6.4911,6.4979,6.5058,6.5087,6.5148,6.5175,6.5264,6.5237,6.5361,6.5315,6.5361,6.5395,6.5399,6.5413,6.5381,6.5444,6.5549,6.5564,6.5423,6.5421,6.5419,0,6.4463,6.4599,6.4696,6.4736,6.4844,6.4889,6.4936,6.5013,6.5066,6.5143,6.5179,6.5265,6.5313,6.5381,6.5431,6.5406,6.5552,6.5528,6.558,6.5579,6.5611,6.5609,6.5728,6.5637,6.5637,6.5636,6.5636,0,6.4556,6.4636,6.4715,6.4775,6.4867,6.4917,6.5007,6.5055,6.5124,6.5195,6.5224,6.5291,6.5352,6.5427,6.5466,6.5565,6.5586,6.5613,6.5623,6.5612,6.5609,6.5644,6.564,6.564,6.5639,6.5638,6.5638,0,6.4614,6.467,6.4779,6.4872,6.4897,6.4961,6.5041,6.5102,6.5147,6.5237,6.5261,6.5334,6.5424,6.548,6.5594,6.5621,6.573,6.5736,6.5703,6.5708,6.5758,6.5754,6.5906,6.593,6.582,6.5821,6.5822,0,6.4671,6.4733,6.4834,6.4884,6.4931,6.501,6.5065,6.5117,6.5173,6.527,6.5319,6.541,6.5487,6.563,6.5693,6.5781,6.5792,6.5839,6.5805,6.5793,6.5796,6.5792,6.58,6.5845,6.5846,6.5847,6.5847,0,6.4766,6.4791,6.4868,6.4956,6.502,6.5092,6.5164,6.5203,6.5268,6.5329,6.5422,6.5481,6.5598,6.569,6.5784,6.5833,6.5853,6.5857,6.5875,6.5865,6.5844,6.5859,6.5721,6.5854,6.5853,6.5853,6.5853,6.5852,6.4827,6.4885,6.4965,6.5051,6.5111,6.5177,6.524,6.5294,6.5372,6.5471,6.5497,6.5595,6.5675,6.5803,6.5854,6.5932,6.5926,6.595,6.5957,6.5963,6.5965,6.583,6.5949,6.5949,6.5949,6.5949,6.5949,0,6.4926,6.4979,6.5058,6.5157,6.5226,6.5236,6.5317,6.5374,6.5459,6.5531,6.5606,6.5714,6.5804,6.5874,6.5967,6.6016,6.6027,6.6039,6.6037,6.6049,6.5964,6.5941,6.6028,6.6028,6.6028,6.6028,6.6028,6.6028,6.4985,6.5085,6.512,6.525,6.5303,6.5399,6.5445,6.5507,6.5566,6.5684,6.5759,6.5804,6.5878,6.5976,6.6059,6.6078,6.6112,6.6122,6.6143,6.6063,6.6054,6.6046,6.6025,6.6128,6.6128,6.6221,6.6222,6.6223]}]]